This demonstration page uses our WeatherBlox Daily Observations layout. Learn more.

Hourly Observations for May 22, 2018

Temp ( °F °C ) Dew Point ( °F °C ) Humidity (%) Winds ( mph kmh ) Pressure ( in mb ) Visibility ( mi km ) Precip ( " mm )
12:54 am 00:54 Mostly Clear 66 18.9 56 13.3 70 70 Calm 29.96 1015 10 16.0934 0 0
1:54 am 01:54 Clear 66 18.9 56 13.3 70 70 SSE 3 6 29.95 1014 10 16.0934 0 0
2:54 am 02:54 Partly Cloudy 64 17.8 55 12.8 73 73 Calm 29.95 1014 10 16.0934 0 0
3:54 am 03:54 Partly Cloudy 62 16.7 56 13.3 80 80 Calm 29.95 1014 10 16.0934 0 0
4:54 am 04:54 Clear 60 15.6 56 13.3 86 86 SSE 6 9 29.95 1014 10 16.0934 0 0
5:54 am 05:54 Partly Cloudy with Nearby Thunderstorms 62 16.7 58 14.4 86 86 SSE 6 9 29.96 1015 10 16.0934 0 0
6:17 am 06:17 Mostly Cloudy 61 16.1 59 15 93 93 S 8 13 29.97 1015 9 14.48406 0 0
6:54 am 06:54 Mostly Cloudy 63 17.2 61 16.1 93 93 S 7 11 29.96 1015 9 14.48406 0 0.0254
7:50 am 07:50 Partly Cloudy with Nearby Thunderstorms 66 19 61 16 83 83 S 10 17 29.97 1015 10 16.0934 0 0
7:54 am 07:54 Partly Cloudy with Nearby Thunderstorms 66 18.9 61 16.1 84 84 S 9 15 29.96 1015 10 16.0934 0 0.0254
8:05 am 08:05 Mostly Cloudy with Thunderstorms 66 18.9 61 16.1 84 84 SSE 8 13 29.97 1015 10 16.0934 0 0.0254
8:46 am 08:46 Mostly Cloudy with Nearby Thunderstorms 66 18.9 63 17.2 90 90 S 10 17 29.97 1015 10 16.0934 0.06 1.524
8:54 am 08:54 Cloudy with Nearby Thunderstorms 66 18.9 63 17.2 90 90 SSE 9 15 29.98 1015 10 16.0934 0.06 1.524
9:05 am 09:05 Mostly Cloudy 67 19.4 63 17.2 87 87 SSE 7 11 29.97 1015 10 16.0934 0 0
9:54 am 09:54 Mostly Cloudy 70 21.1 64 17.8 82 82 ESE 7 11 29.98 1015 10 16.0934 0 0
10:38 am 10:38 Partly Cloudy with Nearby Thunderstorms 73 22.8 66 18.9 79 79 ESE 10 17 29.97 1015 10 16.0934 0 0
10:54 am 10:54 Mostly Cloudy 74 23.3 66 18.9 76 76 S 13 20 29.98 1015 10 16.0934 0 0
11:54 am 11:54 Partly Cloudy 79 26.1 68 20 69 69 ESE 10 17 29.97 1015 10 16.0934 0 0
12:44 pm 12:44 Partly Cloudy 82 27.8 66 18.9 58 58 S 16 26 29.94 1014 10 16.0934 0 0
12:54 pm 12:54 Mostly Cloudy 82 27.8 66 18.9 58 58 SSE 13 20 29.95 1014 10 16.0934 0 0
1:54 pm 13:54 Mostly Cloudy 83 28.3 65 18.3 55 55 S 16 26 29.93 1014 10 16.0934 0 0
2:54 pm 14:54 Partly Cloudy 86 30 64 17.8 48 48 S 16 26 29.91 1013 10 16.0934 0 0
3:54 pm 15:54 Sunny 87 30.6 62 16.7 43 43 S 17 28 29.89 1012 10 16.0934 0 0
4:54 pm 16:54 Sunny 88 31.1 62 16.7 42 42 S 15 24 29.88 1012 10 16.0934 0 0
5:54 pm 17:54 Sunny 87 30.6 61 16.1 42 42 S 14 22 29.88 1012 10 16.0934 0 0
6:54 pm 18:54 Sunny 84 28.9 60 15.6 44 44 S 15 24 29.88 1012 10 16.0934 0 0
7:54 pm 19:54 Sunny 81 27.2 62 16.7 53 53 S 12 19 29.88 1012 10 16.0934 0 0
8:54 pm 20:54 Clear 79 26.1 62 16.7 56 56 SSE 10 17 29.9 1013 10 16.0934 0 0
9:54 pm 21:54 Clear 77 25 62 16.7 60 60 S 10 17 29.92 1013 10 16.0934 0 0
10:54 pm 22:54 Clear 74 23.3 62 16.7 67 67 S 9 15 29.95 1014 10 16.0934 0 0
11:54 pm 23:54 Clear 74 23.3 62 16.7 67 67 SSE 9 15 29.95 1014 10 16.0934 0 0

Powered by AerisWeather